GFSSGP_250_spd_159.txt.gz
Wind_Speed
30 28 33 35 28 31 33 27 26 28 24 21 20 18 19 18 16 16 13 15 8 7 9 8 13 16 20 18 19 21 23 21 21 16 8 14 24 24 25 23 22 20 16 15 18 23 24 24 20
31 29 30 29 30 26 25 23 20 21 23 22 22 22 23 21 18 17 15 15 13 12 10 8 9 13 17 16 18 19 21 23 22 21 11 8 15 21 23 21 21 19 16 14 14 15 19 17 16
33 32 31 31 30 28 25 25 24 20 19 20 23 23 22 23 23 20 17 17 17 18 15 10 9 13 15 15 15 18 20 20 22 23 21 13 6 14 20 22 20 17 15 15 12 13 16 17 16
32 31 32 30 28 27 26 24 25 23 22 20 19 17 18 16 17 20 20 20 15 17 22 14 14 13 17 17 14 15 19 18 20 24 22 20 10 2 9 15 18 19 17 17 18 15 14 15 13
33 33 31 28 28 27 24 24 26 23 21 20 17 15 16 16 16 15 18 21 22 22 21 14 15 15 14 14 16 14 18 18 18 21 20 20 20 13 3 4 8 12 13 14 14 13 12 11 8
35 33 32 31 32 31 28 26 23 22 21 21 18 19 19 19 18 17 18 19 22 24 23 19 20 15 13 11 13 14 15 21 17 19 17 17 17 15 12 6 2 2 5 7 9 9 9 9 11
35 33 31 30 30 29 29 26 26 24 21 22 20 20 20 19 18 17 17 18 21 21 23 25 23 21 21 15 14 18 15 14 14 20 19 14 13 13 12 11 8 2 3 5 6 8 10 9 10
40 37 35 34 32 33 30 28 29 27 25 25 23 22 22 21 20 20 19 17 17 20 21 21 26 24 25 24 17 19 19 16 16 16 17 17 13 10 11 11 9 10 11 10 11 12 12 12 12
45 42 39 37 36 33 32 31 31 30 27 25 25 23 23 23 22 21 20 18 20 20 20 21 23 24 23 21 19 32 28 18 20 20 16 17 14 13 12 12 12 10 11 13 15 17 16 16 18
47 48 44 41 39 38 36 34 34 32 30 30 29 28 25 22 22 23 22 23 23 22 21 21 21 25 25 31 28 32 23 23 27 25 21 19 19 17 15 15 15 15 16 17 17 19 21 22 23
52 49 47 46 43 43 41 41 38 37 35 37 37 35 33 30 28 27 25 25 25 26 27 26 26 25 25 30 25 29 29 33 33 29 27 25 25 24 24 20 20 21 23 24 24 24 26 28 29
56 54 51 49 48 47 48 48 45 41 38 39 40 40 39 38 38 37 35 33 33 30 30 31 32 32 31 29 28 31 35 36 36 33 30 31 33 30 29 29 28 27 26 27 28 30 31 32 33
58 57 55 53 52 52 52 53 51 48 43 43 45 43 43 43 43 43 42 41 40 40 38 36 34 35 37 37 34 33 33 37 35 38 37 35 40 39 38 38 36 36 36 35 35 34 35 37 40
64 61 59 57 55 56 59 57 58 53 48 49 49 47 48 48 49 48 49 47 47 45 45 43 42 40 39 39 38 39 36 38 40 41 42 42 42 44 46 45 44 43 42 41 42 42 42 41 43
69 65 62 62 62 62 61 58 63 56 56 56 53 53 54 54 54 54 54 55 53 51 49 49 48 45 43 42 41 42 43 44 42 41 45 46 50 51 50 49 49 47 47 49 47 49 46 47 46
74 69 64 67 68 66 63 63 66 60 60 58 58 59 58 57 58 59 60 59 56 56 56 55 53 51 49 47 47 47 47 47 47 47 49 51 50 53 53 53 54 54 54 54 55 54 52 54 55
72 69 72 73 70 69 64 62 70 66 64 62 62 63 61 61 62 63 62 62 62 61 60 61 59 57 55 53 54 55 54 54 54 54 53 53 54 54 55 59 61 62 61 62 63 62 62 67 67
77 75 73 73 74 71 69 66 72 71 67 65 66 66 66 67 67 66 66 66 67 67 66 66 64 63 61 61 60 61 61 61 60 60 61 61 60 58 59 59 62 65 65 66 67 70 72 73 69
76 73 72 71 75 75 77 72 73 74 70 71 73 73 73 71 71 72 71 72 71 71 70 70 71 72 71 71 69 66 67 66 68 69 68 70 70 69 66 66 65 66 64 66 69 72 74 75 75
85 82 78 78 77 76 72 73 79 80 77 76 77 79 78 77 75 76 76 75 74 75 75 76 77 78 76 73 74 72 72 72 74 75 76 74 74 75 73 72 70 75 74 73 73 73 73 75 78
86 88 89 87 87 85 81 74 76 75 76 81 83 84 84 83 81 80 79 78 78 79 81 81 81 80 80 80 78 78 78 77 78 79 80 80 81 81 81 80 80 81 80 80 79 80 77 78 76
92 93 94 94 94 91 87 81 78 78 80 85 88 86 87 84 81 83 83 84 85 85 85 86 85 85 86 84 83 84 86 86 90 93 95 95 94 95 94 94 94 94 93 91 89 89 89 86 82
94 99 102 103 100 96 91 88 78 81 86 88 90 89 86 86 88 88 88 88 88 87 88 90 90 90 91 93 93 93 96 98 98 100 100 102 105 106 104 102 100 98 91 92 95 95 93 91 88
103 100 102 104 104 100 95 95 82 86 88 89 92 95 93 93 93 92 92 92 92 90 91 93 96 97 99 100 99 99 100 102 105 108 107 107 106 106 105 104 102 97 93 92 93 94 96 95 92
110 105 104 108 107 104 102 98 86 91 93 95 96 97 97 96 97 96 95 96 98 100 101 101 102 103 102 101 103 106 104 107 103 102 104 104 105 106 109 111 108 104 99 98 94 92 93 95 96
116 114 113 113 110 108 107 97 90 92 96 99 102 98 97 99 100 100 102 104 105 106 106 106 105 105 106 107 110 112 110 107 107 106 106 108 109 110 114 113 111 108 104 102 99 95 93 94 96
118 118 118 118 117 116 109 98 99 99 100 106 103 102 100 103 106 107 108 108 111 115 113 112 111 110 111 113 116 117 113 112 112 112 115 117 116 115 109 108 108 108 107 106 104 100 97 96 93
120 119 121 121 120 118 111 105 99 99 107 106 107 110 110 108 111 115 118 120 121 119 117 114 114 115 117 119 118 117 118 118 119 119 123 119 113 112 110 112 114 115 117 117 112 108 103 99 98
120 123 127 129 129 127 120 109 101 106 110 113 114 116 117 117 118 123 124 125 124 121 119 119 120 122 122 123 123 122 123 125 128 128 123 120 117 118 118 121 121 122 121 121 118 115 110 105 102
127 126 129 128 126 129 128 115 106 112 116 120 124 124 124 123 124 125 128 129 128 126 124 124 125 125 125 125 126 129 131 134 131 124 124 126 124 122 117 117 117 117 118 118 119 117 114 111 106

GFSSGP_250_spd_162.txt.gz
Wind_Speed
25 35 34 34 34 32 30 31 31 31 26 27 25 15 15 15 16 17 10 7 9 8 11 11 11 16 22 17 19 21 21 23 26 26 24 11 13 20 24 22 21 23 24 20 17 13 18 18 22
28 27 29 29 28 31 33 26 25 24 22 20 17 17 14 16 16 19 15 13 9 8 12 11 11 13 20 18 16 19 23 22 28 25 25 21 9 12 21 25 23 21 21 19 17 14 14 16 15
32 31 30 28 27 26 26 25 22 20 16 14 12 12 14 15 15 16 17 17 16 7 11 16 9 12 15 16 14 16 22 23 27 29 24 24 20 10 14 19 19 19 17 17 17 14 13 13 16
35 34 32 30 31 29 27 26 24 22 20 17 16 13 12 11 8 8 10 13 17 16 14 16 12 12 14 14 15 13 19 22 19 27 24 24 21 18 9 7 16 17 16 13 13 12 18 15 15
37 35 34 32 30 28 26 23 22 21 20 18 15 13 11 12 11 10 11 12 13 14 17 16 12 11 13 13 13 15 20 20 15 21 28 21 20 19 19 14 7 8 12 16 18 19 15 14 10
38 37 36 33 31 28 25 23 22 22 20 18 17 14 14 14 13 13 12 13 13 13 14 15 16 14 11 16 16 15 14 19 18 18 21 21 19 17 15 14 11 8 7 6 8 8 9 8 9
39 38 36 36 34 32 29 27 25 24 23 20 19 17 16 17 15 13 12 14 14 16 14 12 13 16 16 18 13 20 14 21 22 17 18 17 16 16 13 11 9 10 8 7 5 6 6 7 11
41 40 38 36 34 32 29 27 28 25 23 21 20 21 20 18 16 14 15 15 16 16 15 15 14 14 14 16 17 18 17 27 25 17 18 16 16 13 13 12 10 6 7 9 9 12 14 17 18
45 43 40 38 37 33 32 30 30 28 26 25 24 22 19 18 18 16 15 15 14 14 15 15 15 13 14 15 17 17 18 25 25 19 21 23 17 16 15 14 13 14 12 11 13 15 17 18 21
49 46 44 42 41 38 35 34 32 30 29 27 25 24 21 20 20 19 18 19 17 16 16 16 16 18 17 16 17 18 17 21 24 22 28 25 24 20 18 22 20 17 17 18 19 20 22 22 23
54 50 48 46 45 43 40 37 36 35 33 31 30 28 26 26 25 25 23 24 21 22 22 22 23 23 21 20 22 21 21 21 23 25 26 28 29 29 25 25 25 26 26 24 24 26 27 30 32
55 53 50 49 47 47 46 43 40 40 40 37 36 35 32 31 31 30 30 30 29 30 30 30 30 28 26 28 28 28 28 30 24 25 29 30 30 33 34 31 31 31 32 33 33 34 33 32 34
58 56 53 50 48 48 49 47 47 45 45 43 43 40 37 36 37 36 35 34 32 33 34 34 36 33 33 32 32 31 33 33 30 33 31 30 34 35 36 38 39 37 39 41 42 42 45 43 42
59 57 55 51 51 53 54 53 51 51 48 47 48 46 44 42 43 41 40 39 38 39 40 41 42 41 39 37 37 36 33 34 36 36 35 38 39 41 42 42 41 42 45 46 47 49 49 49 50
64 61 59 57 58 58 59 57 59 54 53 52 52 51 50 48 48 46 43 43 45 45 47 47 49 48 47 44 42 42 40 39 38 39 41 42 41 42 47 49 47 48 48 48 48 49 53 55 56
69 66 62 64 63 63 61 64 62 60 57 55 56 56 55 56 54 50 47 48 48 50 51 52 53 53 52 50 47 47 45 44 45 45 48 48 48 49 49 48 51 52 52 53 55 55 55 57 60
72 69 70 72 70 69 66 69 66 63 62 61 60 59 61 60 58 53 52 54 54 53 53 56 56 58 55 54 55 53 53 53 52 53 55 55 55 54 52 54 55 54 54 55 56 59 62 64 64
78 78 77 76 76 72 70 72 71 67 63 64 65 65 65 64 62 58 58 57 58 58 59 60 60 61 59 58 59 60 60 60 62 63 63 61 61 61 59 59 62 62 63 64 64 64 65 66 65
85 82 80 80 79 76 74 72 74 70 66 67 69 68 68 66 66 65 64 62 62 62 64 64 64 65 62 63 63 63 66 68 69 69 68 68 67 67 65 65 66 67 69 68 69 71 70 71 73
84 83 81 80 79 75 73 67 70 72 68 71 74 75 73 72 71 71 70 69 68 68 66 68 68 69 67 68 70 71 72 74 75 74 75 74 74 73 71 70 70 69 72 74 77 76 76 76 77
81 80 82 84 83 78 72 70 66 69 71 70 70 72 72 76 78 76 75 73 70 70 72 72 72 70 73 75 76 77 79 79 80 80 79 81 81 80 80 81 81 83 84 87 89 90 88 89 89
85 85 85 84 84 82 81 78 75 74 77 78 80 78 76 76 76 76 76 74 74 75 76 76 74 76 79 80 81 81 83 84 84 83 85 86 88 89 90 88 89 89 89 91 93 95 95 96 95
92 94 91 89 88 87 86 86 75 80 83 86 88 86 84 82 81 81 80 79 80 80 82 82 82 83 85 86 86 86 88 88 89 90 91 93 95 97 94 94 95 96 97 94 94 94 94 95 96
97 95 96 99 99 94 93 93 86 85 87 91 92 90 90 90 89 86 84 84 84 84 85 85 86 86 87 88 89 90 92 94 94 95 97 99 100 100 100 101 103 101 98 97 97 96 96 96 96
105 104 107 109 107 103 104 105 97 97 97 95 92 92 92 92 90 88 89 90 92 92 90 91 92 91 92 93 93 95 96 97 96 100 105 104 104 105 107 106 108 105 102 101 101 101 102 103 102
113 114 114 115 112 108 107 103 98 101 106 106 104 103 99 95 95 94 94 94 96 97 96 98 98 96 97 98 99 99 101 103 105 109 110 106 106 107 109 111 111 111 111 110 111 111 112 112 110
116 115 119 119 116 115 110 103 102 100 106 109 107 108 107 105 103 104 102 100 100 101 102 103 103 102 102 103 104 106 108 112 114 116 114 113 110 110 110 107 111 114 115 117 120 120 121 115 109
124 120 120 122 121 119 113 110 103 104 110 109 109 111 111 108 108 110 109 107 104 106 107 108 109 111 109 111 113 114 115 119 123 122 119 114 109 108 110 113 116 116 120 124 123 120 118 116 116
131 130 127 129 127 124 121 116 106 108 112 114 114 112 113 113 113 115 117 116 116 116 113 113 115 117 119 120 122 123 125 127 128 122 118 116 115 116 118 120 123 125 129 127 125 125 123 122 119
132 132 135 131 130 131 131 118 112 110 115 118 121 122 123 121 120 120 120 121 123 122 122 122 121 123 125 126 129 131 132 129 123 122 122 121 124 126 127 130 133 133 128 129 129 120 118 122 119

GFSSGP_250_spd_165.txt.gz
Wind_Speed
28 28 34 33 32 32 33 32 32 25 25 21 20 19 14 12 12 15 13 8 8 5 6 8 8 10 16 14 16 19 21 27 25 29 22 15 7 19 25 22 23 21 24 26 27 25 21 15 16
29 26 27 35 34 32 30 29 26 22 18 17 16 14 12 9 10 11 15 14 12 10 9 7 8 7 11 14 13 13 19 24 24 28 26 23 12 6 16 21 23 22 19 21 23 19 17 14 15
34 30 27 27 30 32 28 24 23 21 18 15 14 14 14 13 10 10 11 11 13 12 7 9 13 8 8 11 10 15 17 23 20 26 29 27 22 12 2 12 19 19 21 21 19 19 17 14 15
37 35 32 29 28 29 25 23 21 20 20 21 19 18 15 13 10 7 5 6 9 11 12 13 12 9 9 9 11 12 19 17 17 22 25 24 25 21 15 1 10 12 15 15 17 14 11 16 18
40 38 36 33 32 30 29 26 24 22 22 21 20 18 17 15 13 11 10 9 9 9 10 9 10 9 11 10 12 14 15 13 20 19 19 21 21 22 18 14 12 5 7 13 16 14 17 21 17
42 42 38 36 34 31 28 26 24 23 21 22 20 16 15 15 15 15 14 14 14 14 12 10 9 11 11 11 13 13 14 14 18 19 16 16 16 16 18 16 13 11 11 10 6 5 8 10 8
45 44 41 39 36 33 30 27 25 23 23 23 22 20 18 17 17 17 16 15 13 14 16 16 14 14 10 11 12 13 16 16 16 19 13 15 17 16 12 11 10 8 7 7 6 7 7 5 8
48 46 43 41 37 34 33 31 30 26 25 23 24 23 20 20 19 19 18 16 16 15 15 13 13 14 14 13 12 11 12 13 15 19 16 14 18 16 15 13 14 12 10 10 9 10 10 11 14
46 47 47 43 40 38 37 34 31 29 26 24 24 22 21 20 19 16 16 16 15 12 11 11 11 12 13 14 13 16 16 16 16 17 17 17 20 20 16 15 14 18 18 17 16 17 17 18 19
47 46 46 46 43 41 38 35 33 31 28 27 26 25 23 22 19 18 17 15 13 13 13 13 14 14 13 14 14 15 16 17 18 18 20 21 22 21 22 22 20 20 21 24 23 24 25 25 26
50 49 50 48 46 44 41 39 37 34 32 30 29 27 24 24 23 21 21 20 19 20 19 20 21 21 21 20 20 20 19 18 20 21 22 24 24 25 24 25 26 27 26 26 27 30 30 31 32
53 52 53 53 50 47 46 44 42 39 36 34 33 31 29 28 30 27 26 24 26 27 27 26 26 26 26 27 27 26 27 26 25 23 24 26 27 29 28 31 32 32 31 33 34 35 37 39 40
56 56 55 55 54 53 51 48 45 45 42 39 37 35 35 35 34 32 29 29 31 32 31 30 31 31 32 32 32 33 31 31 31 30 29 27 28 31 33 34 35 35 38 40 40 40 40 42 44
58 58 58 57 56 55 54 51 48 48 46 43 42 40 40 42 40 37 34 34 36 37 37 37 36 37 38 40 40 41 39 38 35 33 36 37 34 33 33 34 37 40 42 44 45 44 45 47 49
62 63 61 60 60 58 57 52 54 51 48 46 45 43 45 46 45 42 41 43 42 43 42 42 42 43 42 44 45 46 45 44 39 37 36 36 39 40 41 42 43 43 44 47 49 50 52 55 55
66 65 65 64 63 62 60 58 57 54 53 51 50 49 51 50 49 47 48 52 51 49 48 47 47 46 47 48 49 50 50 48 45 43 42 41 40 41 43 48 50 50 52 54 54 53 55 55 56
71 68 68 70 69 66 64 64 60 58 55 55 54 54 56 57 54 49 54 57 55 54 53 52 52 51 50 51 52 54 54 53 51 51 51 49 48 50 50 52 53 53 54 58 58 60 62 62 62
77 76 75 75 76 72 69 67 64 63 60 58 60 61 62 62 61 57 60 60 60 59 58 58 58 56 56 56 56 58 58 57 57 57 57 57 58 57 57 60 61 60 61 62 63 64 65 68 70
82 82 79 79 77 78 75 72 70 69 66 65 65 65 65 65 64 62 64 65 65 64 63 63 64 63 62 62 62 62 62 63 64 62 65 65 66 68 67 66 67 65 64 66 67 68 68 70 72
87 85 84 83 83 83 81 77 76 73 71 69 70 68 66 64 66 68 68 67 67 66 65 65 67 68 69 68 67 67 68 69 68 69 71 73 74 75 75 74 72 72 73 72 73 75 77 78 81
86 87 88 88 88 89 88 81 80 78 72 73 72 71 68 68 70 70 68 67 69 72 72 73 73 72 72 71 71 70 71 73 74 75 77 79 80 80 79 80 79 77 77 76 81 86 85 83 84
86 89 88 88 89 89 86 84 82 78 75 73 69 69 70 73 75 72 73 72 72 71 71 70 69 70 71 71 73 76 78 80 80 80 81 83 85 84 84 84 81 80 82 83 90 95 93 91 89
88 88 87 88 84 84 81 80 74 72 73 73 73 73 72 74 75 74 78 78 76 76 75 76 76 76 77 78 79 81 83 82 83 85 86 89 89 88 87 87 88 90 92 93 97 100 99 97 95
93 93 94 93 90 85 82 80 72 73 75 78 80 80 81 83 83 84 85 84 83 84 84 83 82 82 82 83 85 86 88 89 90 91 92 93 94 94 92 92 94 96 99 102 104 107 106 102 99
100 99 96 99 99 92 90 88 78 81 81 86 88 88 89 90 91 93 93 92 92 92 93 93 93 94 93 93 94 94 94 94 95 98 99 98 99 99 99 100 101 103 106 108 112 112 110 103 98
111 111 109 108 103 101 102 94 87 86 89 93 95 94 95 96 95 95 97 97 99 100 100 100 100 98 99 101 100 100 100 100 100 101 102 104 102 104 107 109 110 112 113 115 116 114 108 105 102
119 114 118 119 114 111 104 99 96 91 94 96 100 101 101 102 102 102 102 103 104 104 104 102 102 102 103 104 105 104 104 105 105 103 106 108 108 109 111 114 116 118 120 123 121 115 111 108 106
122 122 123 123 121 119 110 109 101 103 102 105 104 106 107 108 110 109 108 107 106 105 106 106 108 109 108 108 109 111 111 110 110 111 113 111 113 119 119 120 122 125 127 125 122 117 112 110 112
123 125 126 126 126 123 119 117 110 104 105 111 113 114 115 114 116 116 115 114 112 109 110 111 111 113 114 115 115 117 117 116 116 118 118 119 122 124 125 126 129 129 128 123 118 116 116 119 121
124 124 128 128 125 129 126 113 110 112 115 115 116 115 115 119 121 121 122 121 119 120 119 119 118 117 118 119 121 123 123 124 124 125 125 126 129 130 131 131 131 127 122 120 120 122 124 128 131

GFSSGP_250_spd_168.txt.gz
Wind_Speed
34 34 32 32 30 30 31 28 26 23 23 19 14 14 10 10 9 11 12 10 7 7 3 4 5 4 8 10 12 13 18 21 22 26 27 23 6 13 22 21 25 28 21 19 21 23 23 25 19
35 36 31 29 33 32 29 30 29 25 20 13 13 11 9 8 8 10 12 13 13 11 11 11 6 5 4 6 8 10 15 15 18 23 26 26 23 6 11 19 23 21 20 21 20 22 24 19 16
33 33 30 29 23 30 29 26 22 19 16 16 13 11 12 11 10 11 11 10 13 12 11 9 8 7 6 4 4 5 11 11 15 17 22 23 26 22 7 4 8 13 16 18 19 20 17 15 12
37 35 33 30 26 22 23 25 22 19 18 17 15 15 16 14 13 13 13 11 10 11 13 13 12 11 7 7 6 6 5 6 13 15 16 19 20 22 19 15 7 5 9 12 14 16 15 13 11
41 38 36 33 29 25 22 23 21 20 19 19 20 20 19 18 17 15 14 12 11 10 10 12 12 14 12 12 13 11 8 6 8 12 10 13 15 16 17 15 14 14 13 7 9 15 13 13 13
43 43 41 36 34 32 27 26 26 25 22 20 22 21 19 18 18 17 15 14 14 13 14 12 12 14 14 16 15 16 11 10 9 10 6 10 11 11 12 13 14 12 10 8 8 9 6 5 6
45 44 40 39 37 34 32 28 29 25 24 22 20 20 19 19 18 18 17 15 15 15 15 14 14 15 15 15 14 15 14 11 13 11 6 6 9 11 11 11 12 13 12 11 8 6 5 3 5
49 46 45 40 37 37 34 32 30 27 23 22 23 23 22 22 21 21 18 17 17 17 16 15 13 11 11 10 12 13 13 14 12 13 14 10 10 10 11 10 9 11 13 15 15 15 13 11 12
51 48 47 43 40 40 36 35 32 31 27 26 26 24 24 23 21 20 20 19 17 16 15 12 10 7 7 7 8 9 11 12 15 15 14 13 15 16 16 14 12 14 13 15 16 18 18 20 21
53 51 48 42 44 45 39 38 35 33 31 30 27 25 23 22 21 19 17 15 16 17 16 14 12 12 12 13 12 12 11 12 14 15 16 18 17 17 18 19 20 22 21 20 20 21 22 22 24
55 53 47 47 46 47 43 41 38 36 34 32 29 27 26 24 24 21 20 18 18 19 19 19 18 19 19 19 19 18 19 19 19 19 18 19 21 21 20 22 25 24 25 25 28 29 30 30 32
58 54 51 50 47 45 44 44 42 39 36 35 33 29 28 27 26 23 24 24 24 25 26 26 27 26 25 25 24 24 25 25 25 25 25 25 25 24 24 25 28 29 30 30 29 30 32 35 37
60 57 53 51 50 47 45 47 42 42 41 38 37 34 33 31 29 27 27 30 30 29 30 29 30 30 29 29 30 32 32 32 32 32 30 30 30 30 30 31 30 30 34 37 37 39 38 38 39
64 60 56 53 52 50 50 49 46 48 45 43 42 40 39 36 33 32 33 35 35 35 35 35 35 35 35 35 36 37 38 39 38 36 35 34 32 32 34 35 35 35 37 38 39 41 45 48 47
66 65 60 56 55 52 52 49 51 54 48 48 47 45 45 43 40 37 37 38 40 40 41 40 40 40 40 41 41 42 42 44 41 39 37 36 32 34 34 34 35 36 38 42 46 47 48 51 53
72 69 64 61 60 57 57 53 57 53 50 52 50 48 48 45 42 40 40 43 47 46 47 47 46 46 46 46 46 47 47 46 45 43 44 41 38 39 40 41 42 41 42 44 45 47 50 51 51
75 71 69 67 64 63 60 58 60 56 54 53 50 51 52 51 49 47 47 52 52 51 51 51 52 52 52 53 52 52 52 51 50 52 51 50 49 48 48 50 49 49 50 53 55 53 52 54 54
79 79 76 74 71 67 63 61 64 60 59 56 54 55 56 55 55 53 52 58 57 58 57 57 57 57 57 57 57 57 58 58 58 57 59 57 59 57 55 56 59 59 60 62 62 62 61 59 61
84 81 81 79 77 74 68 66 66 65 62 59 61 60 59 59 59 55 59 63 62 64 63 62 62 63 64 63 63 63 63 64 64 64 64 64 64 64 62 63 65 66 66 69 71 70 70 68 65
86 86 86 85 82 80 78 71 71 67 66 66 63 64 65 65 65 61 66 66 65 63 61 63 65 66 66 67 66 66 67 69 69 69 69 69 71 70 70 71 71 73 74 74 75 77 77 75 74
86 87 88 88 85 84 85 76 74 71 69 68 68 71 70 71 72 69 72 72 68 66 64 62 62 62 63 66 70 72 73 72 68 68 69 71 72 75 77 78 79 80 81 81 81 82 83 83 83
85 87 88 86 84 85 87 77 74 73 71 71 73 75 77 78 78 75 76 75 70 68 67 66 67 69 70 70 71 71 71 71 71 72 72 74 76 80 83 85 87 87 87 86 87 88 89 86 86
88 89 87 86 85 86 84 81 72 76 74 75 77 80 82 81 83 82 78 74 71 70 73 74 72 75 76 77 77 77 77 78 79 80 82 84 85 86 90 90 90 90 91 92 91 90 91 93 94
91 90 89 90 90 83 84 82 72 75 75 75 76 77 79 80 83 81 79 78 79 79 79 78 78 78 79 81 83 84 86 87 87 87 88 90 89 88 90 93 95 94 93 94 95 95 96 98 101
98 96 96 97 95 83 85 86 71 77 76 78 79 79 79 79 81 83 84 84 85 85 85 86 87 87 87 89 90 91 91 91 92 95 95 94 95 97 96 95 94 98 99 101 100 102 104 106 108
107 105 105 105 103 99 97 83 77 77 79 82 85 83 82 84 87 89 90 89 90 90 91 91 92 93 94 94 95 95 96 98 99 101 101 101 101 102 104 103 104 104 106 106 107 109 111 111 112
109 108 111 111 108 106 99 87 84 82 84 85 85 88 90 94 94 95 96 96 97 98 98 98 98 98 99 99 100 101 103 106 108 108 107 105 106 108 109 112 112 111 111 112 113 115 116 115 117
113 114 116 114 112 110 101 101 92 94 94 96 97 99 97 100 101 102 102 103 103 102 102 104 104 104 105 107 107 109 112 113 113 110 109 110 112 116 117 117 115 114 115 117 119 120 120 121 122
117 118 119 120 119 117 109 105 99 99 100 100 101 103 105 106 108 108 108 109 109 108 108 109 109 110 111 112 113 113 114 116 118 119 119 119 120 122 122 120 124 123 125 122 124 124 128 130 127
124 119 122 121 118 120 120 110 105 107 109 109 110 109 113 115 117 118 118 117 117 118 117 115 113 114 115 115 114 116 120 121 122 123 124 126 126 127 127 127 127 129 126 130 130 130 128 131 130

GFSSGP_250_spd_171.txt.gz
Wind_Speed
38 36 33 29 27 22 26 27 27 25 21 17 17 14 10 9 6 10 13 10 8 5 5 2 3 3 2 5 6 9 13 11 14 17 18 20 5 21 23 32 28 23 22 25 22 19 18 22 20
39 39 33 27 27 28 30 29 30 26 24 23 16 11 11 8 8 10 13 14 13 13 11 11 9 7 5 2 1 4 7 8 11 13 17 20 19 5 16 22 21 23 22 29 26 23 20 21 21
43 41 33 27 26 30 31 29 27 25 21 16 17 11 11 10 10 11 12 13 16 18 17 14 11 9 8 7 5 3 3 5 7 8 13 17 20 18 8 8 12 14 19 20 21 21 21 22 18
42 39 32 29 30 27 24 23 23 22 16 17 17 15 14 14 13 12 13 15 15 15 16 17 16 16 14 9 9 9 8 7 7 6 9 11 15 17 18 14 11 5 3 6 9 12 15 16 19
42 41 32 32 28 28 25 21 18 17 21 17 18 18 17 18 17 15 15 15 15 14 11 12 15 18 17 14 14 17 13 11 9 6 5 8 8 12 13 14 12 11 10 9 6 4 8 13 12
47 42 36 34 32 29 26 23 19 20 22 20 21 21 21 20 19 17 18 16 16 15 14 14 12 13 14 15 14 13 13 10 8 7 5 4 4 4 6 8 7 6 6 5 4 6 6 5 4
50 46 39 40 37 32 29 28 25 25 24 25 25 23 23 22 20 18 19 18 18 17 16 15 14 14 15 13 13 13 10 10 9 7 7 7 3 6 5 4 2 4 4 4 4 4 4 3 4
51 49 43 44 40 37 35 32 32 28 27 27 26 24 22 21 20 20 21 20 18 18 16 15 14 13 11 9 9 9 10 10 10 10 9 10 8 8 8 9 10 11 10 8 7 8 9 9 10
52 51 47 44 41 41 39 37 35 32 30 27 26 25 24 23 23 23 23 22 21 20 19 17 14 11 8 5 5 6 8 9 11 12 14 11 11 12 14 13 13 11 12 14 16 16 15 18 20
54 53 50 45 44 46 42 39 37 35 32 31 30 28 26 25 24 24 25 24 23 21 18 15 12 11 9 10 11 10 11 12 13 14 15 16 16 16 16 17 17 19 20 20 19 20 22 24 25
56 54 51 47 49 48 42 42 40 40 35 35 35 30 29 27 24 23 24 23 22 20 19 18 16 15 15 16 17 18 17 17 17 18 18 18 20 21 22 21 23 24 25 24 24 25 27 29 31
60 56 52 51 52 49 42 46 44 42 40 40 36 33 32 30 27 25 26 26 25 23 21 21 21 21 23 24 24 24 24 24 25 25 25 26 26 26 26 26 27 27 28 30 31 31 33 34 34
63 59 54 56 53 50 48 47 44 45 45 44 39 36 34 34 31 29 29 28 28 28 26 25 25 26 26 28 29 29 30 31 32 32 32 32 31 30 30 31 31 31 33 33 33 33 34 35 37
64 62 59 59 56 53 50 47 46 48 49 46 43 40 38 37 35 33 33 32 32 31 31 31 30 31 33 33 34 35 36 37 38 38 38 38 35 32 29 30 32 32 34 35 36 38 40 40 42
65 66 63 61 59 56 53 48 51 53 47 47 45 44 41 39 40 38 37 37 39 37 35 37 37 38 39 39 39 40 42 43 42 42 43 42 39 37 36 33 32 35 37 39 41 40 41 43 44
70 67 64 63 64 59 59 53 55 56 49 50 49 48 44 44 44 44 43 43 46 43 42 43 43 43 43 44 45 45 46 47 48 48 48 47 45 43 43 45 44 43 44 45 44 45 48 50 53
70 67 67 69 69 66 62 57 60 56 53 52 52 52 49 48 47 46 44 49 50 47 47 47 47 48 48 49 50 51 51 52 53 53 52 52 51 51 51 51 51 52 51 48 50 53 54 57 60
73 76 73 69 72 69 65 62 64 61 56 55 54 54 53 52 51 47 48 52 55 53 52 52 51 52 53 53 54 55 56 57 57 58 58 58 58 57 57 58 58 58 58 58 57 58 61 64 67
75 71 71 73 75 73 69 66 68 66 60 59 58 58 57 57 55 52 54 58 61 58 59 58 58 58 58 59 60 62 62 62 61 62 62 64 64 63 62 63 64 63 63 62 63 66 68 70 71
73 74 76 75 74 74 74 71 72 70 64 63 65 63 64 62 60 57 60 64 65 62 63 64 64 62 62 61 57 58 58 56 56 60 63 65 66 67 69 69 66 65 65 67 69 71 72 73 75
76 71 80 83 76 75 75 72 74 73 70 68 67 67 67 68 66 62 64 68 69 67 67 68 69 68 68 68 63 63 64 66 65 66 65 65 66 68 69 69 69 69 71 73 75 79 81 81 80
85 77 80 84 83 75 77 73 75 76 74 73 73 74 73 71 68 68 70 73 73 72 72 73 74 74 73 73 70 67 68 71 72 73 71 71 72 73 73 74 75 78 80 82 82 83 86 87 86
95 88 81 84 84 83 79 77 77 77 76 78 79 78 78 77 73 73 78 77 75 76 77 78 80 79 77 75 75 74 74 74 75 77 76 76 77 78 80 82 85 87 89 90 90 91 92 93 94
93 93 91 86 87 79 80 78 67 78 80 77 79 79 81 79 79 79 79 79 79 79 79 80 79 77 76 78 80 80 80 80 80 80 82 84 85 87 89 92 93 93 93 95 97 99 98 98 98
99 99 96 96 88 77 84 86 65 77 78 77 78 80 80 80 82 82 80 80 79 79 79 79 79 80 82 84 84 85 85 86 88 89 91 91 93 94 93 93 94 96 99 102 103 103 102 104 106
103 106 105 101 95 90 87 78 74 74 78 80 80 80 80 82 84 84 84 84 82 82 82 82 84 86 87 87 89 90 90 91 92 94 96 96 96 97 98 99 101 104 105 105 106 107 107 108 111
104 104 105 107 104 99 95 84 78 78 81 85 85 87 86 87 88 88 88 87 89 89 90 90 90 90 91 92 93 94 94 96 99 99 99 101 102 104 105 106 107 107 106 108 111 113 116 116 118
107 107 107 109 109 105 96 93 84 86 90 90 90 89 91 93 94 96 97 97 96 94 95 96 96 95 96 96 97 99 100 102 104 104 105 106 109 109 109 111 112 114 117 118 116 117 119 120 121
114 111 112 114 111 109 104 94 89 89 93 95 97 99 100 100 101 103 104 104 103 103 103 103 104 104 103 102 103 105 106 108 110 112 114 115 115 115 116 117 118 119 121 122 125 125 125 126 129
117 115 118 116 113 113 112 101 96 95 99 102 102 106 106 106 108 110 109 110 110 110 110 109 109 109 110 110 111 113 114 115 117 117 118 118 118 120 121 123 124 126 127 128 129 130 132 133 135